Theta_e
342 341 342 343 343 342 342 341 339 337 336 336 336 334 330 326 324 325 329 331 332 335 335 335 335 332 329 327 327 328 326 325 325 325 325 325 325 324 323 323 323 324 324
322 328 334 335 338 339 340 340 340 340 338 336 336 335 334 331 327 326 327 330 331 334 334 335 334 333 332 330 326 325 325 324 324 324 323 323 323 322 321 321 323 323 323
318 317 317 317 316 321 330 336 339 339 338 336 335 334 334 334 331 328 327 328 330 333 335 334 335 333 332 331 328 326 324 323 323 322 322 321 321 320 320 320 320 318 322
308 310 312 313 315 315 313 320 333 337 337 337 336 336 334 333 334 331 329 327 329 331 334 334 334 333 332 330 330 326 325 323 321 321 320 319 319 319 319 317 318 316 319
303 303 303 305 306 309 313 315 315 324 335 336 336 336 334 334 333 332 331 329 328 330 333 335 334 333 331 330 328 327 325 323 321 320 319 318 318 317 316 318 319 319 319
297 299 300 300 305 307 309 311 316 315 316 322 334 334 334 333 332 332 331 330 329 330 332 335 334 333 331 329 327 326 325 324 323 321 320 318 316 317 317 317 318 317 318
298 297 299 301 304 308 310 312 314 316 315 315 315 327 333 333 332 331 331 330 330 330 332 333 333 333 331 329 327 324 324 323 321 321 321 318 316 317 316 317 317 317 317
297 298 299 300 300 302 306 309 311 314 316 316 316 316 324 330 331 331 331 330 330 330 331 332 332 331 329 329 326 323 322 321 320 320 320 316 316 316 316 316 316 316 315
299 301 300 299 300 301 302 304 310 313 315 315 315 317 317 325 318 325 330 330 330 330 330 331 331 330 329 327 325 321 320 320 320 319 319 316 316 316 316 315 315 315 315
300 301 301 300 300 303 304 308 310 311 311 313 314 314 315 315 313 315 320 321 329 330 330 330 329 329 327 325 324 321 320 320 320 319 318 316 315 315 315 314 314 314 313
299 300 300 300 303 305 307 309 308 308 309 310 311 312 314 312 309 311 313 311 311 315 329 329 328 327 324 324 323 320 319 319 320 318 318 316 315 314 314 314 314 313 312
301 300 300 303 304 304 305 305 304 305 306 307 308 309 309 311 310 311 311 311 311 312 313 328 327 325 323 323 321 320 318 319 319 318 318 316 314 314 315 314 314 312 311
302 302 303 303 302 301 302 304 304 303 303 304 305 306 308 308 310 311 312 312 313 313 313 318 325 323 323 322 321 320 318 319 319 318 317 316 315 315 314 314 313 313 312
300 301 301 300 300 299 299 299 300 300 300 301 301 302 303 307 308 309 311 311 313 312 310 311 321 322 322 322 321 320 318 318 319 317 317 315 315 315 314 313 312 312 312
299 299 299 298 298 298 298 298 299 300 300 301 301 302 303 305 306 309 308 309 306 311 312 312 310 321 321 320 320 319 318 317 319 317 316 315 314 315 313 313 312 312 310
299 299 298 297 297 296 296 298 298 299 297 297 298 299 300 300 301 303 308 307 307 308 312 311 310 308 319 319 319 318 318 317 319 317 316 316 314 314 313 312 311 311 309
299 298 298 297 296 295 295 296 295 295 295 294 294 294 294 295 297 299 302 307 306 307 311 310 309 308 310 318 317 317 317 316 318 317 316 316 313 313 313 311 310 309 308
298 297 297 296 295 294 294 294 294 293 293 293 293 292 292 294 296 299 300 303 305 304 308 308 308 309 308 317 317 316 316 315 315 316 315 315 313 314 312 310 308 308 308
296 296 294 294 294 293 293 293 293 293 292 292 292 292 292 293 294 296 297 299 302 304 305 307 305 307 307 308 317 315 315 314 314 315 315 315 314 313 312 309 307 308 308
294 294 293 293 293 293 292 293 292 292 292 292 291 291 291 292 293 294 294 296 297 300 304 305 305 306 307 307 313 315 314 314 313 312 313 314 314 313 311 309 307 307 307
293 293 292 292 292 291 292 291 291 291 291 291 291 291 291 291 292 292 292 292 293 297 300 304 301 303 305 307 309 313 313 313 313 311 310 310 311 310 310 308 307 307 306
292 291 291 291 291 291 291 291 291 291 291 291 290 290 290 290 290 290 290 290 291 294 297 301 301 301 303 307 308 310 310 310 305 310 310 308 309 308 307 307 308 307 305
291 291 290 290 290 290 290 290 291 291 291 291 291 290 290 290 289 288 289 290 291 294 295 297 300 304 305 305 307 306 308 308 305 308 308 306 308 307 306 306 307 306 305
291 290 290 290 290 290 290 290 290 290 290 290 290 290 290 290 289 288 288 288 289 291 293 296 297 301 304 306 306 307 305 305 305 306 307 304 306 305 305 305 307 306 305
290 290 290 290 290 290 289 289 290 290 290 289 289 289 289 288 288 287 287 287 288 288 291 294 298 299 302 304 305 304 302 301 297 302 305 303 301 300 302 302 305 306 305
290 290 289 288 288 288 288 289 289 289 289 289 288 288 287 287 287 287 287 287 287 287 287 290 294 298 299 302 303 304 303 300 299 296 301 299 295 298 293 298 300 304 304
Wind_Speed
15 18 18 21 23 27 28 31 33 36 38 39 38 38 36 35 37 38 37 34 30 32 34 31 29 28 27 26 27 28 26 24 22 21 19 18 17 17 15 15 15 15 13
20 18 15 15 14 18 24 29 32 35 35 39 39 40 41 38 38 40 40 38 35 34 37 35 33 32 30 28 30 31 30 28 26 24 23 21 20 18 16 17 17 17 18
19 19 19 19 20 20 19 22 30 33 34 32 33 36 40 42 42 42 44 41 39 35 40 41 37 35 33 31 34 34 32 30 29 27 26 26 25 21 18 17 18 20 20
22 21 20 20 21 21 20 18 20 27 32 33 32 36 37 38 44 46 46 45 43 42 43 46 43 40 38 35 34 34 34 31 30 30 28 26 25 25 21 19 15 19 25
22 23 23 23 24 25 24 23 23 22 25 28 31 36 37 39 41 39 39 46 48 46 43 50 49 45 43 39 37 34 34 33 33 30 28 26 23 25 27 23 21 22 23
25 25 25 25 25 25 24 24 24 26 25 25 30 34 36 38 38 41 41 43 46 48 47 44 52 50 46 43 41 36 33 33 33 30 30 30 29 28 27 29 27 24 23
28 25 23 23 24 25 25 25 25 25 26 25 26 26 31 35 40 40 41 42 45 47 47 46 48 48 50 47 45 40 33 34 34 33 34 32 34 33 30 29 31 30 27
29 25 23 25 26 26 26 26 27 25 20 20 12 18 6 15 26 37 39 41 44 45 46 49 49 48 47 51 48 43 36 35 34 37 37 37 37 35 33 32 32 31 30
25 20 24 25 23 25 25 24 24 22 20 20 17 7 3 3 15 21 36 40 44 47 49 48 50 51 54 50 49 47 44 42 40 39 38 39 41 39 36 33 32 33 34
24 18 20 24 22 21 21 18 18 17 17 16 21 13 16 17 5 8 16 25 34 48 50 49 52 54 56 53 54 53 51 47 46 43 43 40 40 41 38 36 36 36 35
24 19 21 22 19 19 16 14 17 20 20 19 14 16 20 16 15 9 12 17 30 33 49 55 52 51 55 56 57 58 56 53 52 49 48 46 43 42 42 42 40 40 35
26 24 22 17 18 19 15 16 20 18 19 21 21 22 16 16 7 7 7 11 15 35 40 41 52 49 52 54 54 58 61 58 57 54 52 51 48 49 46 44 45 41 38
26 23 20 19 20 19 17 15 16 18 18 19 22 22 21 20 27 20 15 11 8 27 27 41 44 53 54 57 58 64 60 62 59 56 55 53 52 51 50 47 43 40 39
22 22 20 17 18 17 18 17 18 18 18 20 21 23 24 25 26 25 18 15 8 8 9 23 32 41 51 55 58 63 66 65 64 61 58 56 54 54 52 51 46 43 41
12 14 14 16 17 17 16 17 18 18 17 18 19 22 21 22 27 29 21 21 13 12 10 9 19 38 42 49 53 64 60 69 69 65 61 60 58 56 53 53 51 49 45
10 11 13 17 19 20 19 17 15 14 17 18 18 21 24 24 26 27 22 18 21 22 7 15 24 31 37 45 50 57 58 72 73 69 65 64 62 59 58 56 54 50 48
12 13 17 21 24 22 20 14 15 17 19 21 22 22 24 27 26 23 25 22 21 17 13 18 20 29 40 43 46 57 55 66 73 72 68 67 64 62 62 59 56 54 52
9 14 17 21 23 17 18 16 18 18 19 21 21 23 24 23 23 20 19 24 21 20 25 9 12 24 32 36 44 52 51 58 61 73 71 70 66 65 64 61 59 56 55
12 13 16 19 18 18 19 18 17 19 20 21 19 20 20 21 22 22 22 19 21 27 27 21 14 11 24 24 37 49 48 55 57 70 73 71 68 68 66 64 60 59 56
12 11 14 15 14 16 17 17 21 20 20 18 16 17 16 18 23 25 24 21 20 23 22 19 15 13 8 26 19 35 34 46 48 57 67 70 71 70 67 63 61 59 56
10 12 14 13 12 15 14 19 21 21 21 18 17 16 15 17 16 21 23 25 27 21 20 17 6 4 6 13 9 20 24 32 41 52 50 55 62 65 68 65 62 61 59
11 10 11 12 12 13 16 17 18 19 18 16 19 19 18 15 17 21 22 25 22 21 20 14 6 1 5 14 11 15 16 17 5 37 47 40 58 54 55 57 62 61 59
10 10 11 10 11 12 14 16 15 16 17 17 18 20 20 17 16 17 26 26 24 18 17 18 17 11 11 13 17 13 22 23 11 31 36 32 45 43 51 54 63 62 59
10 10 11 11 12 12 14 14 15 14 16 16 17 19 21 23 21 19 18 20 24 23 22 18 23 19 20 17 22 24 20 14 21 30 43 17 34 35 44 52 65 63 62
9 10 10 11 12 11 12 13 14 13 14 16 16 15 20 25 23 23 25 21 22 23 21 17 17 14 14 18 18 16 21 21 4 11 31 24 21 26 27 41 62 65 63
10 9 11 11 10 11 11 11 12 12 14 15 15 18 15 16 21 23 24 23 22 21 23 26 18 14 11 14 19 26 34 21 19 4 22 18 31 30 6 24 43 63 63
Wind_Direction
280 280 283 279 276 274 268 262 257 254 252 251 249 248 244 238 236 233 232 228 224 220 214 214 205 207 209 209 196 197 196 199 202 204 204 205 204 202 206 205 198 193 179
22 15 360 349 336 312 295 278 263 260 254 253 247 247 250 248 243 241 236 233 225 222 218 218 216 205 202 202 198 197 198 193 198 201 202 203 203 207 206 202 200 192 184
21 18 12 0 352 338 321 308 270 262 259 254 250 249 250 252 249 246 243 237 232 225 218 218 221 215 210 203 204 200 202 197 198 202 203 202 203 205 206 209 206 201 187
12 2 357 350 346 342 343 326 307 276 259 255 250 253 253 250 249 247 243 239 235 229 220 219 219 219 213 209 204 203 204 205 201 200 202 209 208 199 195 178 180 173 178
356 351 347 341 338 337 335 334 328 314 283 259 252 252 248 246 247 244 239 239 234 230 220 218 219 218 215 212 208 202 203 202 202 201 199 197 202 181 165 164 163 154 161
355 349 344 340 339 336 332 324 321 322 321 311 268 249 249 248 243 237 234 233 232 228 222 216 215 218 218 215 208 205 206 202 197 197 189 184 178 175 171 171 166 164 167
353 348 344 339 339 341 336 331 317 313 318 325 318 311 258 245 242 236 228 226 223 224 218 215 211 210 213 216 213 208 204 202 194 191 185 185 176 176 179 181 171 172 168
343 341 340 335 336 332 331 337 335 316 310 323 318 306 303 266 246 243 229 221 222 217 218 214 210 207 206 207 209 208 197 197 195 187 187 184 183 180 184 183 180 178 168
339 332 331 335 330 327 326 326 334 331 310 314 316 286 319 304 340 282 235 225 222 216 216 212 207 206 205 203 202 205 196 196 196 191 189 185 186 183 185 183 180 173 167
336 323 323 331 330 326 323 322 324 320 327 317 315 300 266 276 295 309 325 297 241 225 218 208 206 204 201 200 201 201 197 194 196 191 189 190 189 188 185 183 176 170 166
338 326 326 331 336 338 331 326 327 327 323 305 308 316 301 263 244 239 282 299 313 316 235 215 202 203 196 198 197 198 197 195 193 193 190 190 190 188 183 177 174 171 170
351 345 342 350 348 348 339 316 319 320 318 315 307 301 293 293 253 220 252 275 292 298 304 227 205 199 193 196 194 196 196 193 195 194 192 189 188 185 182 178 175 170 173
1 1 359 353 346 344 338 332 321 318 319 316 313 306 296 287 290 266 255 277 279 288 294 279 215 194 195 197 196 200 197 194 195 192 192 189 185 184 179 176 175 170 168
352 352 347 339 338 339 341 337 330 327 324 319 314 312 299 294 278 282 271 280 263 261 263 280 237 198 194 194 197 196 194 193 195 193 191 187 185 183 179 178 176 171 170
346 337 340 341 344 342 339 340 336 333 331 332 325 325 310 305 304 269 264 272 316 299 266 301 286 204 198 195 190 190 192 192 195 193 190 188 187 184 181 179 176 174 171
332 340 349 347 342 342 343 340 340 345 339 336 331 322 314 312 311 311 279 284 258 277 291 261 280 314 208 193 192 189 190 191 195 192 191 189 188 186 183 183 178 176 175
319 327 332 332 337 334 340 334 338 339 339 337 334 328 317 310 309 307 309 283 280 282 271 263 278 286 288 191 190 191 192 189 192 192 191 191 189 188 186 185 182 178 178
316 315 324 323 332 328 329 322 336 339 340 339 337 332 326 323 319 318 322 304 292 298 294 267 252 272 289 213 187 189 189 187 188 191 191 191 188 189 186 184 180 178 177
308 315 327 326 320 321 319 317 317 325 330 329 328 332 332 334 323 324 326 319 307 303 313 245 226 250 269 277 201 191 187 185 185 189 192 191 190 189 187 183 180 178 176
307 312 320 315 322 322 318 317 316 318 320 317 319 326 327 327 324 329 329 334 320 312 314 253 217 226 265 255 240 193 182 185 183 184 188 188 189 188 187 184 181 178 175
306 306 307 313 320 317 320 318 317 315 316 316 320 322 324 330 323 328 332 329 327 320 332 268 261 165 164 238 240 198 185 180 183 177 182 180 177 182 184 185 181 178 175
290 300 307 313 315 314 317 317 315 312 314 316 319 321 325 329 333 332 331 329 330 334 330 315 274 348 225 222 235 166 160 167 153 184 173 175 175 177 179 179 181 179 177
280 293 301 308 313 313 317 317 314 309 313 315 317 319 322 324 334 334 333 334 334 333 326 344 300 252 243 221 197 175 170 166 155 163 170 163 174 171 174 177 181 182 180
275 291 301 301 303 299 314 316 314 311 311 312 317 319 321 321 327 335 332 325 327 337 333 331 331 296 280 249 211 190 171 156 159 165 167 154 168 165 173 176 183 184 182
273 284 296 302 305 305 313 311 316 317 313 311 316 318 319 320 329 335 335 331 324 323 332 325 317 321 290 265 228 177 143 134 95 142 169 141 148 134 160 169 180 184 182
247 265 283 294 303 306 312 314 317 315 319 319 318 321 320 319 323 327 326 322 316 319 327 328 316 318 314 244 219 197 170 153 147 90 167 147 151 136 91 159 171 180 182